BON371F FOOL-FALE

Flight info

Callsign BON371F
Flight time N/A
Altitude 39000
Route PILVI1S PILVI UR526 VNA UT942 ARGOL UN187 UVAMO UT942 UTVIN UM998 XOXAM UL435 EPNUP DCT APDAK UQ48 APMAT APMAT1A
Aircraft A20N/M-SDE2E3FGHIRWXY/LB1

Departure

Time 2026-04-24 19:26
Airport Libreville Leon M'ba International Airport (FOOL)

Arrival

Time N/A
Airport King Shaka International Airport (FALE)
Time Latitude Longitude Altitude Speed Heading
2026-04-24 18:54 0.45698 9.41098 37 ft 0 kts 223°
2026-04-24 19:14 0.45701 9.41102 37 ft 4 kts 223°
2026-04-24 19:14 0.45721 9.41119 37 ft 3 kts 232°
2026-04-24 19:14 0.45733 9.41137 37 ft 4 kts 247°
2026-04-24 19:14 0.45740 9.41156 38 ft 0 kts 249°
2026-04-24 19:18 0.45740 9.41155 38 ft 0 kts 249°
2026-04-24 19:18 0.45739 9.41153 38 ft 1 kts 249°
2026-04-24 19:19 0.45738 9.41143 37 ft 0 kts 282°
2026-04-24 19:19 0.45739 9.41142 37 ft 0 kts 293°
2026-04-24 19:19 0.45744 9.41143 37 ft 0 kts 359°
2026-04-24 19:19 0.45774 9.41155 38 ft 9 kts 24°
2026-04-24 19:20 0.45816 9.41190 39 ft 7 kts 59°
2026-04-24 19:20 0.45842 9.41224 39 ft 7 kts 24°
2026-04-24 19:20 0.45920 9.41201 38 ft 15 kts 333°
2026-04-24 19:20 0.46011 9.41157 38 ft 15 kts 334°
2026-04-24 19:21 0.46098 9.41114 40 ft 12 kts 333°
2026-04-24 19:21 0.46168 9.41081 42 ft 10 kts 335°
2026-04-24 19:21 0.46228 9.41053 42 ft 9 kts 334°
2026-04-24 19:21 0.46281 9.41026 39 ft 8 kts 334°
2026-04-24 19:22 0.46337 9.40999 42 ft 21 kts 335°
2026-04-24 19:22 0.46514 9.40914 46 ft 20 kts 335°
2026-04-24 19:22 0.46639 9.40852 44 ft 20 kts 332°
2026-04-24 19:22 0.46761 9.40792 44 ft 19 kts 334°
2026-04-24 19:23 0.46881 9.40735 42 ft 19 kts 334°
2026-04-24 19:23 0.47005 9.40676 39 ft 20 kts 334°
2026-04-24 19:23 0.47044 9.40639 41 ft 1 kts 345°
2026-04-24 19:23 0.47046 9.40650 41 ft 4 kts 103°
2026-04-24 19:24 0.47026 9.40664 41 ft 0 kts 154°
2026-04-24 19:25 0.46990 9.40681 41 ft 22 kts 154°
2026-04-24 19:25 0.46654 9.40845 41 ft 85 kts 154°
2026-04-24 19:25 0.45928 9.41194 39 ft 143 kts 153°
2026-04-24 19:25 0.44954 9.41661 363 ft 157 kts 152°
2026-04-24 19:26 0.43959 9.42093 911 ft 159 kts 167°
2026-04-24 19:26 0.42916 9.41826 1401 ft 163 kts 221°
2026-04-24 19:26 0.42202 9.40944 2046 ft 163 kts 236°
2026-04-24 19:26 0.41586 9.39997 2787 ft 162 kts 236°
2026-04-24 19:27 0.40953 9.39045 3391 ft 172 kts 234°
2026-04-24 19:27 0.40216 9.37998 3711 ft 197 kts 233°
2026-04-24 19:27 0.39360 9.36834 4033 ft 217 kts 233°
2026-04-24 19:27 0.38433 9.35599 4509 ft 227 kts 233°
2026-04-24 19:28 0.37457 9.34308 4939 ft 241 kts 232°
2026-04-24 19:28 0.36393 9.32910 5184 ft 263 kts 232°
2026-04-24 19:28 0.35256 9.31418 5669 ft 274 kts 232°
2026-04-24 19:28 0.34073 9.29903 6340 ft 279 kts 227°
2026-04-24 19:29 0.30509 9.28845 7595 ft 285 kts 162°
2026-04-24 19:29 0.28832 9.29874 8206 ft 288 kts 134°
2026-04-24 19:29 0.27451 9.31320 8871 ft 290 kts 141°
2026-04-24 19:30 0.26389 9.32130 9285 ft 291 kts 142°
2026-04-24 19:30 0.24768 9.33375 9896 ft 295 kts 142°
2026-04-24 19:30 0.23125 9.34663 10283 ft 308 kts 141°
2026-04-24 19:30 0.21420 9.36043 10543 ft 323 kts 140°
2026-04-24 19:31 0.19649 9.37510 10790 ft 338 kts 139°
2026-04-24 19:31 0.17809 9.39053 11055 ft 351 kts 139°
2026-04-24 19:31 0.15920 9.40643 11465 ft 358 kts 139°
2026-04-24 19:31 0.13893 9.42113 11963 ft 363 kts 148°
2026-04-24 19:32 0.11644 9.43284 12498 ft 366 kts 153°
2026-04-24 19:32 0.09326 9.44357 13029 ft 368 kts 154°
2026-04-24 19:32 0.06989 9.45419 13595 ft 371 kts 154°
2026-04-24 19:32 0.04631 9.46492 14158 ft 373 kts 154°
2026-04-24 19:33 0.02273 9.47569 14711 ft 374 kts 154°
2026-04-24 19:33 -0.00106 9.48657 15239 ft 377 kts 154°
2026-04-24 19:33 -0.02494 9.49752 15777 ft 379 kts 154°
2026-04-24 19:33 -0.04894 9.50853 16326 ft 380 kts 154°
2026-04-24 19:34 -0.07303 9.51958 16837 ft 382 kts 154°
2026-04-24 19:34 -0.09729 9.53071 17324 ft 384 kts 154°
2026-04-24 19:34 -0.12167 9.54189 17795 ft 387 kts 154°
2026-04-24 19:34 -0.14612 9.55311 18253 ft 388 kts 154°
2026-04-24 19:35 -0.17079 9.56444 18655 ft 391 kts 154°
2026-04-24 19:35 -0.19559 9.57582 19028 ft 394 kts 154°
2026-04-24 19:35 -0.22059 9.58730 19397 ft 397 kts 154°
2026-04-24 19:35 -0.24568 9.59882 19755 ft 399 kts 154°
2026-04-24 19:36 -0.27102 9.61045 20089 ft 401 kts 154°
2026-04-24 19:36 -0.29638 9.62210 20410 ft 403 kts 154°
2026-04-24 19:36 -0.32201 9.63388 20738 ft 406 kts 154°
2026-04-24 19:36 -0.34774 9.64569 21084 ft 408 kts 154°
2026-04-24 19:37 -0.37358 9.65755 21412 ft 410 kts 154°
2026-04-24 19:37 -0.39959 9.66947 21767 ft 412 kts 154°
2026-04-24 19:37 -0.42565 9.68141 22104 ft 414 kts 154°
2026-04-24 19:37 -0.45190 9.69345 22430 ft 416 kts 154°
2026-04-24 19:38 -0.47832 9.70557 22743 ft 419 kts 154°
2026-04-24 19:38 -0.50488 9.71777 23064 ft 421 kts 154°
2026-04-24 19:38 -0.53155 9.73001 23384 ft 423 kts 154°
2026-04-24 19:38 -0.55837 9.74232 23686 ft 425 kts 154°
2026-04-24 19:39 -0.58532 9.75470 23982 ft 428 kts 154°
2026-04-24 19:39 -0.61207 9.76698 24273 ft 430 kts 154°
2026-04-24 19:39 -0.63935 9.77950 24557 ft 432 kts 154°
2026-04-24 19:39 -0.66673 9.79208 24826 ft 435 kts 154°
2026-04-24 19:40 -0.69428 9.80473 25137 ft 437 kts 154°
2026-04-24 19:40 -0.72198 9.81745 25442 ft 439 kts 154°
2026-04-24 19:40 -0.74983 9.83023 25733 ft 442 kts 154°
2026-04-24 19:40 -0.77778 9.84306 26024 ft 444 kts 154°
2026-04-24 19:41 -0.80588 9.85603 26335 ft 446 kts 154°
2026-04-24 19:41 -0.83405 9.86911 26625 ft 448 kts 154°
2026-04-24 19:41 -0.86234 9.88226 26906 ft 450 kts 154°
2026-04-24 19:41 -0.89077 9.89547 27186 ft 452 kts 154°
2026-04-24 19:42 -0.91934 9.90874 27461 ft 454 kts 154°
2026-04-24 19:42 -0.94803 9.92206 27721 ft 456 kts 154°
2026-04-24 19:42 -0.97687 9.93545 27992 ft 458 kts 154°
2026-04-24 19:42 -1.00582 9.94890 28244 ft 459 kts 154°
2026-04-24 19:43 -1.03483 9.96237 28483 ft 461 kts 154°
2026-04-24 19:43 -1.06399 9.97591 28734 ft 463 kts 154°
2026-04-24 19:43 -1.09327 9.98950 28985 ft 465 kts 154°
2026-04-24 19:43 -1.12264 10.00314 29234 ft 466 kts 154°
2026-04-24 19:44 -1.15199 10.01677 29580 ft 465 kts 154°
2026-04-24 19:44 -1.18128 10.03038 29955 ft 463 kts 154°
2026-04-24 19:44 -1.21047 10.04393 30278 ft 462 kts 154°
2026-04-24 19:44 -1.23955 10.05747 30565 ft 462 kts 153°
2026-04-24 19:45 -1.26852 10.07145 30845 ft 462 kts 153°
2026-04-24 19:45 -1.29739 10.08561 31107 ft 462 kts 153°
2026-04-24 19:45 -1.32625 10.09980 31386 ft 462 kts 153°
2026-04-24 19:45 -1.35513 10.11401 31659 ft 462 kts 153°
2026-04-24 19:46 -1.38395 10.12817 31918 ft 462 kts 153°
2026-04-24 19:46 -1.41283 10.14235 32181 ft 463 kts 153°
2026-04-24 19:46 -1.44172 10.15653 32438 ft 462 kts 153°
2026-04-24 19:46 -1.47062 10.17071 32672 ft 463 kts 153°
2026-04-24 19:47 -1.49955 10.18491 32914 ft 463 kts 153°
2026-04-24 19:47 -1.52839 10.19906 33151 ft 463 kts 153°
2026-04-24 19:47 -1.55735 10.21328 33384 ft 463 kts 153°
2026-04-24 19:47 -1.58621 10.22744 33615 ft 463 kts 153°
2026-04-24 19:48 -1.61520 10.24166 33814 ft 464 kts 153°
2026-04-24 19:48 -1.64411 10.25586 34000 ft 464 kts 153°
2026-04-24 19:48 -1.70205 10.28431 34479 ft 463 kts 153°
2026-04-24 19:49 -1.75968 10.31260 35040 ft 459 kts 153°
2026-04-24 19:49 -1.81679 10.34064 35520 ft 456 kts 153°
2026-04-24 19:50 -1.90344 10.37939 36114 ft 454 kts 157°
2026-04-24 19:50 -1.93278 10.39116 36298 ft 453 kts 158°
2026-04-24 19:51 -1.99085 10.41433 36649 ft 452 kts 157°
2026-04-24 19:51 -2.01994 10.42606 36833 ft 451 kts 157°
2026-04-24 19:52 -2.10619 10.46124 36888 ft 441 kts 157°
2026-04-24 19:52 -2.16286 10.48452 36887 ft 440 kts 157°
2026-04-24 19:53 -2.21954 10.50780 36888 ft 440 kts 157°
2026-04-24 19:54 -2.30453 10.54269 36888 ft 440 kts 157°
2026-04-24 19:54 -2.36122 10.56596 36889 ft 440 kts 157°
2026-04-24 19:55 -2.40835 10.58531 36885 ft 440 kts 157°
2026-04-24 19:55 -2.47455 10.61247 36888 ft 440 kts 157°
2026-04-24 19:56 -2.53125 10.63574 36887 ft 440 kts 157°
2026-04-24 19:56 -2.58790 10.65898 36885 ft 440 kts 157°
2026-04-24 19:57 -2.64456 10.68226 36888 ft 440 kts 157°
2026-04-24 19:57 -2.70115 10.70548 36889 ft 440 kts 157°